Preview of NWS' New Version of Forecast
This preview is not operational and should not be used for support decisions.

Regional Weather Roundup (RWR)

Issued by National Weather Service (NWS)

                            
000
ASUS43 KDTX 221710
RWRMI 
MICHIGAN HOURLY REGIONAL WEATHER ROUNDUP
NATIONAL WEATHER SERVICE DETROIT/PONTIAC MI
100 PM EDT MON JUL 22 2019

NOTE: "FAIR" INDICATES FEW OR NO CLOUDS BELOW 12,000 FEET WITH NO
SIGNIFICANT WEATHER AND/OR OBSTRUCTION TO VISIBILITY.

MIZ047>049-052>055-059>063-066>070-074>076-081>083-221800-
SOUTHEAST LOWER MICHIGAN
  
CITY           SKY/WX    TMP DP  RH WIND       PRES   REMARKS
ADRIAN         FAIR      72  60  66 N8        29.97S                  
ALMA           CLOUDY    71  53  54 N8G16     30.01S                  
ANN ARBOR        N/A    N/A N/A N/A MISG      29.96S                  
BAD AXE        CLOUDY    68  60  75 N10G20    29.96S                  
CARO           FAIR      73  60  65 N7        29.97F                  
DETROIT CITY   FAIR      77  56  48 NW8       29.94F                  
DETROIT        CLOUDY    76  57  51 N6        29.95S                  
FLINT          FAIR      71  53  52 NW8       29.99S                  
GROSSE ILE     FAIR      76  58  54 E3        29.93F                  
HILLSDALE      FAIR      70  61  75 NW9       29.99S                  
HOWELL         FAIR      69  52  55 NW7       29.99S                  

CITY           SKY/WX    TMP DP  RH WIND       PRES   REMARKS
JACKSON        FAIR      70  57  63 NW9       29.99S                  
LAMBERTVILLE   FAIR     N/A N/A N/A N3        29.95S                  
LANSING        FAIR      71  53  52 NW13      30.00S                  
LAPEER         FAIR      69  56  63 W9        29.98S                  
MASON          FAIR      70  57  63 N9        30.00S                  
MONROE         FAIR      75  60  58 N3        29.94S                  
MT. CLEMENS    CLOUDY    77  59  53 NW8       29.94F                  
PONTIAC        PTSUNNY   70  54  56 W14       29.95R                  
PORT HOPE        N/A     69  59  70 N18G25    29.95S                  
PORT HURON     FAIR      75  55  50 NW8       29.94R                  
TRI CITIES     CLOUDY    70  59  68 NE14      30.00S                  
MIDLAND        CLOUDY    73  56  55 N7G17     29.99S                  
TROY           PTSUNNY   74  56  51 NW10G17   29.96S                  
SAGINAW HB     PTSUNNY   70  57  64 N10       29.98F                  
$$
MIZ043>046-050>051-056>058-064>065-071>073-077>080-221800-
SOUTHWEST LOWER MICHIGAN
  
CITY           SKY/WX    TMP DP  RH WIND       PRES   REMARKS
BATTLE CREEK   FAIR      72  57  59 NW7       30.01S                  
BENTON HARBOR  FAIR      70  56  61 N9G23     30.03F                  
BIG RAPIDS     FAIR      73  51  46 N13       30.02F                  
COLDWATER      FAIR      70  62  75 N7        30.00S                  
FREMONT        FAIR      73  49  42 N13       30.03S                  
HOLLAND        PTSUNNY   72  60  66 NW10G17   30.03S                  
GRAND RAPIDS   FAIR      72  56  57 VRB6      30.02S                  
KALAMAZOO      FAIR      71  55  56 N12       30.02S                  
LUDINGTON      FAIR      71  55  58 N12G20    30.06S                  
MARSHALL       FAIR      71  58  63 NW8       29.99F                  
MOUNT PLEASANT PTSUNNY   73  56  53 N9G20     30.00S                  
MUSKEGON       FAIR      74  57  55 N12       30.03S                  
SOUTH HAVEN    FAIR      71  58  64 N14G24    30.03S                  
$$
MIZ016>042-221800-
NORTHERN LOWER MICHIGAN
  
CITY           SKY/WX    TMP DP  RH WIND       PRES   REMARKS
ALPENA         FAIR      75  42  30 N16       30.01S                  
BEAVER ISLAND  FAIR      71  48  43 NW5       30.06F                  
BELLAIRE       FAIR      75  45  34 N7G17     30.04F                  
CADILLAC       FAIR      73  46  38 NW15      30.04S                  
CHARLEVOIX     FAIR      70  57  63 NW7       30.09S                  
FRANKFORT      FAIR      73  54  51 N9        30.07S                  
GAYLORD        FAIR      69  42  37 NE12G20   30.04F                  
GRAYLING       FAIR      73  44  36 N12G24    30.02F                  
HARBOR SPRINGS FAIR      75  42  30 NW10G17   30.04S                  
HOUGHTON LAKE  FAIR      72  48  42 N13G23    30.03S                  
MANISTEE       FAIR      70  56  61 N12G20    30.06S                  
OSCODA         FAIR      74  51  43 N15G21    29.98S                  
PELLSTON       FAIR      74  47  38 NW12      30.04F                  
ROGERS CITY    FAIR      70  49  46 N7        30.03F                  
TRAVERSE CITY  FAIR      73  48  41 N10       30.04S                  
$$
MIZ007>008-015-221800-
EASTERN UPPER MICHIGAN
  
CITY           SKY/WX    TMP DP  RH WIND       PRES   REMARKS
KINROSS        FAIR      73  46  38 NW10      30.02F                  
MACKINAC ISLAN FAIR      72  47  40 W6        30.02F                  
NEWBERRY       FAIR      74  41  30 NW8       30.03F                  
S. S. MARIE    FAIR      73  49  42 NW9G22    30.01F                  
MUNISING         N/A     70  51  51 N15       30.06S                  
$$
MIZ004>006-011>014-085-221800-
CENTRAL UPPER MICHIGAN
  
CITY           SKY/WX    TMP DP  RH WIND       PRES   REMARKS
MANISTIQUE     FAIR      77  49  37 W13       30.04F                  
ESCANABA       FAIR      74  48  39 W8        30.07F                  
MENOMINEE        N/A     72  49  44 VRB5      30.10F                  
SAWYER-GWINN   MOSUNNY   75  45  33 NW7G21    30.07F                  
$$
MIZ001>003-009>011-084-221800-
WESTERN UPPER MICHIGAN
  
CITY           SKY/WX    TMP DP  RH WIND       PRES   REMARKS
IRON MOUNTAIN  FAIR      75  47  36 N9G20     30.10F                  
HOUGHTON       FAIR      69  52  54 W13G22    30.10R                  
COPPER HARBOR    N/A     67  55  65 N13       30.08S                  
IRONWOOD       FAIR      71  56  58 W9        30.16F                  
$$

ABBREVIATIONS USED IN REMARKS
   TC - TEMPERATURE IN CELSIUS
  WCI - WIND CHILL INDEX
   HX - HEAT INDEX
  VSB - VISIBILITY